Погода в Алексеевке

Россия / Самарская область     53°15′02″N   50°29′25″E
темп.,
°C
ветер,
м/с
пор.,
м/с
влажн.,
%
обл.,
%
осадки,
мм/ч
давл.,
гПа
погр.,
м
16 мая, вс
вс1601:00+20ююв22495 0.0 101917
04:00+18юв22505 0.0 101916
07:00+20ююв14515 0.0 1020144
10:00+27ю47354 0.0 1019713
13:00+31ююз79245 0.0 10193444
16:00+31юз68225 0.0 10183674
19:00+27ююз34384 0.0 101760
22:00+21юв48474 0.0 1018117
17 мая, пн
пн1701:00+19ююв23546 0.0 101844
04:00+18ююв1152100 0.0 101911
07:00+20юв115397 0.0 101922
10:00+27ю24386 0.0 1019461
13:00+31ююв34255 0.0 10193087
16:00+31ю43228 0.0 10183261
19:00+25ссз224187 0.0 101822
22:00+22вюв22455 0.0 101815
18 мая, вт
вт1801:00+20ююв00485 0.0 101811
04:00+19ююв11455 0.0 101811
07:00+22всв11455 0.0 101970
10:00+27вюв233319 0.0 1018519
13:00+31юв12217 0.0 10182373
16:00+31всв22180 0.0 10173131
19:00+27св34355 0.0 101650
22:00+22всв46355 0.0 101777
19 мая, ср
ср1901:00+20в413664 0.0 1017257
04:00+18в411755 0.0 1017225
07:00+20в511677 0.0 1017366
10:00+25в57465 0.0 1016725
13:00+28в56370 0.0 10161399
16:00+29вюв56350 0.0 10152270
19:00+25вюв712470 0.0 1014481
22:00+22вюв815520 0.0 1015565
20 мая, чт
чт2001:00+19юв5115272 0.0 1016402
04:00+17вюв5125452 0.1 1016392
07:00+18ююв51160100 0.1 1017638
10:00+22ююз5658100 0.3 10171172
13:00+15ююв2689100 3.9 1019273
16:00+20ю6864100 3.9 10181094
19:00+20ююв5867100 0.1 1017605
22:00+15ююв39880 0.8 1018175